COSMOS 2024 (ETALON 2)

Last updated on Wed Sep 17 2025 00:03:37 GMT+0000 (Coordinated Universal Time)

1 20026U 89039C 25258.66016510 -.00000050 00000+0 00000+0 0 9990 2 20026 65.1000 319.9860 0020367 214.5850 159.7136 2.13204449282657
UTC large
Height (km)
Speed (km/s)
/
Latitude / Longitude
Inclination (degrees)
Orbital Period (minutes)
Azimuth
Elevation
Range (km)
Doppler Factor

Next 0 passes for location: London (51.5072 / 0.1276)

Sorry there are no passes over London.